DW8338 Sevilla ES current weather conditions

sailwx.info

Wind from 190 at 2 knots gusting 6

Air temperature 19.4° C
Dewpoint 17.4° C

Last reported at 2019-Jul-16 06:05 UTC.
Time now 2019-Jul-16 07:03 UTC

Location: N 37°23' W 006°01'.
View on Google Maps.

See reports from other nearby stations

  
Tides and Currents Weather Stations Pressure Air Temp Water Temp Dewpoint Dewpoint Depression Visibility Wind Speed Wind Dir Waves Ship Positions
date/time (UTC)wind fromknots sea level pressurealtimeterstation pressurevisibilityair tempwater tempwave heightnotes
2019-Jul-16 06:05 190 2 gusting 6 19.4
2019-Jul-16 05:56 187 2 gusting 5 19.4
2019-Jul-16 05:47 181 1 gusting 4 19.4
2019-Jul-16 05:38 187 2 gusting 4 19.4
2019-Jul-16 05:29 184 1 gusting 4 19.4
2019-Jul-16 05:20 190 1 gusting 4 19.4
2019-Jul-16 05:11 189 2 gusting 5 19.4
2019-Jul-16 05:02 177 3 gusting 6 19.4
2019-Jul-16 04:53 177 3 gusting 5 19.4
2019-Jul-16 04:44 195 2 gusting 6 19.4
2019-Jul-16 04:35 183 3 gusting 6 19.4
2019-Jul-16 04:26 178 3 gusting 6 19.4
2019-Jul-16 04:17 181 3 gusting 6 19.4
2019-Jul-16 04:08 177 3 gusting 6 19.4
2019-Jul-16 03:59 185 2 gusting 6 19.4
2019-Jul-16 03:50 182 2 gusting 6 19.4
2019-Jul-16 03:41 186 3 gusting 6 19.4
2019-Jul-16 03:32 174 3 gusting 5 19.4
2019-Jul-16 03:23 177 3 gusting 6 19.4
2019-Jul-16 03:14 175 2 gusting 6 19.4
2019-Jul-16 03:05 175 2 gusting 5 19.4
2019-Jul-16 02:56 185 2 gusting 5 19.4
2019-Jul-16 02:47 188 3 gusting 6 19.4
2019-Jul-16 02:38 191 4 gusting 6 19.4
2019-Jul-16 02:29 191 4 gusting 6 19.4
2019-Jul-16 02:20 189 3 gusting 6 19.4
2019-Jul-16 02:11 194 3 gusting 6 20.0
2019-Jul-16 02:02 193 4 gusting 6 20.0
2019-Jul-16 01:53 193 4 gusting 7 20.0
2019-Jul-16 01:44 191 3 gusting 7 20.0
2019-Jul-16 01:35 189 3 gusting 7 20.0
2019-Jul-16 01:26 185 3 gusting 6 20.0
2019-Jul-16 01:17 183 4 gusting 8 20.6
2019-Jul-16 01:08 179 3 gusting 6 20.6
2019-Jul-16 00:59 187 3 gusting 6 20.6
2019-Jul-16 00:50 187 4 gusting 6 20.6
2019-Jul-16 00:41 191 4 gusting 7 20.6
2019-Jul-16 00:32 193 5 gusting 7 20.6
2019-Jul-16 00:23 193 5 gusting 7 20.6
2019-Jul-16 00:14 192 5 gusting 9 20.6
2019-Jul-16 00:05 193 4 gusting 9 21.1
2019-Jul-15 23:56 193 5 gusting 7 21.1
2019-Jul-15 23:47 197 4 gusting 7 21.1
2019-Jul-15 23:38 190 5 gusting 7 21.1
2019-Jul-15 23:29 187 4 gusting 7 21.1
2019-Jul-15 23:20 190 4 gusting 6 21.7
2019-Jul-15 23:11 191 3 gusting 6 21.7
2019-Jul-15 23:02 187 3 gusting 6 21.7
2019-Jul-15 22:53 189 4 gusting 6 21.7
2019-Jul-15 22:44 190 4 gusting 6 22.2
2019-Jul-15 22:35 201 3 gusting 6 22.2
2019-Jul-15 22:26 196 3 gusting 6 22.2
2019-Jul-15 22:17 204 4 gusting 5 22.8
2019-Jul-15 22:08 207 5 gusting 7 22.8
2019-Jul-15 21:59 200 4 gusting 7 22.8
2019-Jul-15 21:50 195 4 gusting 6 22.8
2019-Jul-15 21:41 197 3 gusting 6 23.3
2019-Jul-15 21:32 197 4 gusting 6 23.3
2019-Jul-15 21:23 199 4 gusting 6 23.3
2019-Jul-15 21:14 194 4 gusting 7 23.9
2019-Jul-15 21:05 193 4 gusting 7 23.9
2019-Jul-15 20:56 202 5 gusting 8 23.9
2019-Jul-15 20:47 199 4 gusting 8 24.4
2019-Jul-15 20:38 187 3 gusting 8 24.4
2019-Jul-15 20:29 192 4 gusting 7 24.4
2019-Jul-15 20:20 194 6 gusting 9 25.0
2019-Jul-15 20:11 192 6 gusting 12 25.0
2019-Jul-15 20:02 190 6 gusting 10 25.0
2019-Jul-15 19:53 188 6 gusting 10 25.6
2019-Jul-15 19:44 189 6 gusting 11 25.6
2019-Jul-15 19:35 192 6 gusting 11 26.1
2019-Jul-15 19:26 189 6 gusting 11 26.7
2019-Jul-15 19:17 193 6 gusting 11 26.7
2019-Jul-15 19:08 193 6 gusting 11 27.2
2019-Jul-15 18:59 190 6 gusting 11 27.2
2019-Jul-15 18:50 190 6 gusting 10 27.8
2019-Jul-15 18:41 193 7 gusting 13 28.3
2019-Jul-15 18:32 190 6 gusting 13 28.3
2019-Jul-15 18:23 188 6 gusting 13 28.9
2019-Jul-15 18:14 179 6 gusting 12 28.9
2019-Jul-15 18:05 183 6 gusting 13 29.4
2019-Jul-15 17:56 186 7 gusting 13 29.4
2019-Jul-15 17:47 189 7 gusting 13 29.4
2019-Jul-15 17:38 185 6 gusting 13 30.0
2019-Jul-15 17:29 192 6 gusting 12 30.6
2019-Jul-15 17:20 199 7 gusting 13 30.6
2019-Jul-15 17:11 201 6 gusting 13 30.6
2019-Jul-15 17:02 199 6 gusting 11 30.6
2019-Jul-15 16:53 190 7 gusting 13 30.6
2019-Jul-15 16:44 191 7 gusting 14 30.6
2019-Jul-15 16:35 190 6 gusting 14 30.6
2019-Jul-15 16:26 190 7 gusting 12 31.1
2019-Jul-15 16:17 189 8 gusting 13 30.6
2019-Jul-15 16:08 195 7 gusting 15 30.6
2019-Jul-15 15:59 199 7 gusting 15 30.6
2019-Jul-15 15:50 186 7 gusting 12 30.6
2019-Jul-15 15:41 184 8 gusting 15 30.6
2019-Jul-15 15:32 184 8 gusting 13 30.6
2019-Jul-15 15:23 187 8 gusting 16 30.6
2019-Jul-15 15:14 192 7 gusting 16 30.6
2019-Jul-15 15:05 187 8 gusting 15 30.6
2019-Jul-15 14:56 195 7 gusting 14 30.6
2019-Jul-15 14:47 194 7 gusting 14 30.6
2019-Jul-15 14:38 194 8 gusting 14 30.6
2019-Jul-15 14:29 193 7 gusting 15 30.0
2019-Jul-15 14:20 195 7 gusting 14 30.6
2019-Jul-15 14:11 197 8 gusting 15 30.0
2019-Jul-15 14:02 191 8 gusting 16 30.0
2019-Jul-15 13:53 200 7 gusting 14 30.0
2019-Jul-15 13:44 192 7 gusting 14 30.0
2019-Jul-15 13:35 209 6 gusting 15 30.0
2019-Jul-15 13:26 203 6 gusting 12 30.0
2019-Jul-15 13:17 203 6 gusting 13 30.0
2019-Jul-15 13:08 200 6 gusting 13 29.4
2019-Jul-15 12:59 199 6 gusting 13 30.0
2019-Jul-15 12:50 197 6 gusting 13 29.4
2019-Jul-15 12:41 187 6 gusting 12 29.4
2019-Jul-15 12:32 187 6 gusting 10 29.4
2019-Jul-15 12:23 202 6 gusting 11 28.9
2019-Jul-15 12:14 187 5 gusting 9 28.3
2019-Jul-15 12:05 183 5 gusting 9 28.3
2019-Jul-15 11:56 188 5 gusting 9 28.3
2019-Jul-15 11:47 206 5 gusting 10 27.8
2019-Jul-15 11:38 205 4 gusting 9 27.8
2019-Jul-15 11:29 201 5 gusting 8 27.2
2019-Jul-15 11:20 191 5 gusting 12 26.7
2019-Jul-15 11:11 181 4 gusting 11 26.7
2019-Jul-15 11:02 184 5 gusting 10 26.7
2019-Jul-15 10:53 181 6 gusting 9 26.1
2019-Jul-15 10:44 189 5 gusting 11 25.6
2019-Jul-15 10:35 187 4 gusting 9 25.6
2019-Jul-15 10:26 208 4 gusting 9 25.6
2019-Jul-15 10:17 206 3 gusting 6 25.6
2019-Jul-15 10:08 223 4 gusting 9 24.4
2019-Jul-15 09:59 207 4 gusting 6 24.4
2019-Jul-15 09:50 216 2 gusting 7 23.9
2019-Jul-15 09:41 245 2 gusting 6 23.9
2019-Jul-15 09:32 220 2 gusting 6 23.3
2019-Jul-15 09:23 203 2 gusting 6 23.3
2019-Jul-15 09:14 182 3 gusting 6 22.8
2019-Jul-15 09:05 199 3 gusting 6 22.2
2019-Jul-15 08:56 234 3 gusting 6 22.2
2019-Jul-15 08:47 237 4 gusting 6 22.2
2019-Jul-15 08:38 231 3 gusting 7 22.2
2019-Jul-15 08:29 223 2 gusting 6 22.2
2019-Jul-15 08:20 206 3 gusting 6 21.7
2019-Jul-15 08:11 182 3 gusting 6 21.7
2019-Jul-15 08:02 179 3 gusting 6 21.7
2019-Jul-15 07:53 190 3 gusting 6 21.7
2019-Jul-15 07:44 197 4 gusting 6 21.7
2019-Jul-15 07:35 191 5 gusting 7 21.1
2019-Jul-15 07:26 199 4 gusting 8 21.1
2019-Jul-15 07:17 202 4 gusting 8 21.1
2019-Jul-15 07:08 210 5 gusting 8 21.1
2019-Jul-15 06:59 222 5 gusting 7 21.1
2019-Jul-15 06:50 209 3 gusting 8 20.6
2019-Jul-15 06:41 198 2 gusting 5 20.6
2019-Jul-15 06:32 194 3 gusting 6 20.6
2019-Jul-15 06:23 207 4 gusting 7 20.6
2019-Jul-15 06:14 204 4 gusting 7 20.6
2019-Jul-15 06:05 211 5 gusting 8 20.6
2019-Jul-15 05:56 215 6 gusting 10 20.6
2019-Jul-15 05:47 214 5 gusting 9 20.6
2019-Jul-15 05:38 214 4 gusting 7 20.6
2019-Jul-15 05:29 215 3 gusting 7 20.6
2019-Jul-15 05:20 193 4 gusting 6 20.6
2019-Jul-15 05:11 189 4 gusting 6 20.6
2019-Jul-15 05:02 184 3 gusting 6 20.6
2019-Jul-15 04:53 192 3 gusting 6 20.6
2019-Jul-15 04:44 193 4 gusting 6 20.6
2019-Jul-15 04:35 188 3 gusting 8 20.6
2019-Jul-15 04:26 189 3 gusting 7 20.6
2019-Jul-15 04:17 183 3 gusting 6 20.6
2019-Jul-15 04:08 188 4 gusting 6 20.0
2019-Jul-15 03:59 191 4 gusting 7 20.0
2019-Jul-15 03:50 194 4 gusting 7 20.0
2019-Jul-15 03:41 189 3 gusting 7 20.0
2019-Jul-15 03:32 185 2 gusting 6 20.6
2019-Jul-15 03:23 186 3 gusting 6 20.6
2019-Jul-15 03:14 184 3 gusting 6 20.6
2019-Jul-15 03:05 189 3 gusting 6 20.6
2019-Jul-15 02:56 181 3 gusting 6 20.6
2019-Jul-15 02:47 191 3 gusting 6 20.6
2019-Jul-15 02:38 186 3 gusting 6 20.6
2019-Jul-15 02:29 181 3 gusting 6 20.6
2019-Jul-15 02:20 182 3 gusting 6 20.6
2019-Jul-15 02:11 190 3 gusting 6 20.6
2019-Jul-15 02:02 182 2 gusting 6 20.6
2019-Jul-15 01:53 178 2 gusting 4 21.1
2019-Jul-15 01:44 178 2 gusting 6 21.1
2019-Jul-15 01:35 181 2 gusting 5 21.1
2019-Jul-15 01:26 175 2 gusting 4 21.1
2019-Jul-15 01:17 178 2 gusting 4 21.1
2019-Jul-15 01:08 183 2 gusting 5 21.1
2019-Jul-15 00:59 176 2 gusting 5 21.1
2019-Jul-15 00:50 178 1 gusting 5 21.1
2019-Jul-15 00:41 184 2 gusting 5 21.1
2019-Jul-15 00:32 178 2 gusting 6 21.1
2019-Jul-15 00:23 174 2 gusting 4 21.1
2019-Jul-15 00:14 177 2 gusting 5 21.1
2019-Jul-15 00:05 193 3 gusting 6 21.1
2019-Jul-14 23:56 190 3 gusting 6 21.1
2019-Jul-14 23:47 177 3 gusting 6 21.7
2019-Jul-14 23:38 184 3 gusting 6 21.7
2019-Jul-14 23:29 177 4 gusting 6 21.7
2019-Jul-14 23:20 181 3 gusting 7 21.7
2019-Jul-14 23:11 176 3 gusting 6 21.7
2019-Jul-14 23:02 183 4 gusting 6 21.7
2019-Jul-14 22:53 192 5 gusting 8 21.7
2019-Jul-14 22:44 196 5 gusting 8 22.2
2019-Jul-14 22:35 193 5 gusting 10 22.2
2019-Jul-14 22:26 203 5 gusting 12 22.2
2019-Jul-14 22:17 202 5 gusting 12 22.2
2019-Jul-14 22:08 206 6 gusting 13 22.2
2019-Jul-14 21:59 207 6 gusting 12 22.2
2019-Jul-14 21:50 204 6 gusting 12 22.2
2019-Jul-14 21:41 200 6 gusting 13 22.8
2019-Jul-14 21:32 200 6 gusting 13 22.8
2019-Jul-14 21:23 194 6 gusting 11 22.8
2019-Jul-14 21:14 195 7 gusting 13 22.8
2019-Jul-14 21:05 195 6 gusting 13 23.3
2019-Jul-14 20:56 195 6 gusting 10 23.3
2019-Jul-14 20:47 193 6 gusting 13 23.3
2019-Jul-14 20:38 197 6 gusting 12 23.9
2019-Jul-14 20:29 201 6 gusting 12 24.4
2019-Jul-14 20:20 195 6 gusting 11 24.4
2019-Jul-14 19:38 207 6 gusting 13 26.1
2019-Jul-14 19:29 205 6 gusting 13 26.7
2019-Jul-14 19:20 207 6 gusting 12 26.7
2019-Jul-14 19:11 204 6 gusting 13 27.2
2019-Jul-14 19:02 200 6 gusting 13 27.8
2019-Jul-14 18:53 204 6 gusting 13 27.8
2019-Jul-14 18:44 184 6 gusting 13 27.8
2019-Jul-14 18:35 182 6 gusting 12 27.8
2019-Jul-14 18:26 206 7 gusting 14 28.9
2019-Jul-14 18:17 213 6 gusting 14 28.9
2019-Jul-14 18:08 193 6 gusting 12 28.9
2019-Jul-14 17:59 185 6 gusting 13 28.9
2019-Jul-14 17:50 205 6 gusting 13 30.0
2019-Jul-14 17:41 205 8 gusting 13 30.0
2019-Jul-14 17:32 194 8 gusting 14 29.4
2019-Jul-14 17:23 196 10 gusting 18 30.0
2019-Jul-14 17:14 189 9 gusting 18 29.4
2019-Jul-14 17:05 191 9 gusting 16 29.4
2019-Jul-14 16:56 189 10 gusting 17 29.4
2019-Jul-14 16:47 186 10 gusting 19 29.4
2019-Jul-14 16:38 187 10 gusting 17 30.0
2019-Jul-14 16:29 187 10 gusting 18 30.0
2019-Jul-14 16:20 184 9 gusting 18 30.0
2019-Jul-14 16:11 189 9 gusting 18 30.6
2019-Jul-14 16:02 198 9 gusting 17 30.6
2019-Jul-14 15:53 188 10 gusting 19 30.0
2019-Jul-14 15:44 198 10 gusting 18 30.0
2019-Jul-14 15:35 191 9 gusting 18 30.6
2019-Jul-14 15:26 185 9 gusting 18 30.6
2019-Jul-14 15:17 187 9 gusting 15 30.6
2019-Jul-14 15:08 192 8 gusting 15 30.6
2019-Jul-14 14:59 177 6 gusting 14 30.0
2019-Jul-14 14:50 178 6 gusting 14 30.0
2019-Jul-14 14:41 162 6 gusting 15 30.0
2019-Jul-14 14:32 183 7 gusting 13 30.0
2019-Jul-14 14:23 197 6 gusting 13 30.0
2019-Jul-14 14:14 190 6 gusting 13 30.0
2019-Jul-14 14:05 177 6 gusting 13 29.4
2019-Jul-14 13:56 177 6 gusting 13 29.4
2019-Jul-14 13:47 179 7 gusting 14 29.4
2019-Jul-14 13:38 183 6 gusting 15 28.9
2019-Jul-14 13:29 172 6 gusting 15 29.4
2019-Jul-14 13:20 193 6 gusting 11 28.9
2019-Jul-14 13:11 193 6 gusting 14 28.9
2019-Jul-14 13:02 185 7 gusting 13 28.9
2019-Jul-14 12:53 188 7 gusting 15 28.3
2019-Jul-14 12:44 199 6 gusting 14 28.3
2019-Jul-14 12:35 193 6 gusting 12 28.3
2019-Jul-14 12:26 192 6 gusting 14 27.8
2019-Jul-14 12:17 188 6 gusting 11 27.8
2019-Jul-14 12:08 193 6 gusting 13 27.8
2019-Jul-14 11:59 187 5 gusting 13 27.8
2019-Jul-14 11:50 170 6 gusting 9 27.8
2019-Jul-14 11:41 200 5 gusting 11 27.2
2019-Jul-14 11:32 186 6 gusting 11 27.2
2019-Jul-14 11:23 178 5 gusting 12 27.2
2019-Jul-14 11:14 163 5 gusting 9 27.2
2019-Jul-14 11:05 184 4 gusting 10 26.7
2019-Jul-14 10:56 167 5 gusting 9 26.7
2019-Jul-14 10:47 190 6 gusting 11 26.7
2019-Jul-14 10:38 186 5 gusting 11 26.1
2019-Jul-14 10:29 176 3 gusting 10 26.1
2019-Jul-14 10:20 177 2 gusting 6 26.1
2019-Jul-14 10:11 199 3 gusting 6 25.6
2019-Jul-14 10:02 183 2 gusting 6 25.6
2019-Jul-14 09:53 167 2 gusting 5 25.6
2019-Jul-14 09:44 176 3 gusting 6 25.0
2019-Jul-14 09:35 167 1 gusting 6 24.4
2019-Jul-14 09:26 187 2 gusting 5 24.4
2019-Jul-14 09:17 183 2 gusting 5 23.9
2019-Jul-14 09:08 194 2 gusting 6 23.9
2019-Jul-14 08:59 168 2 gusting 6 23.9
2019-Jul-14 08:50 190 2 gusting 6 23.3
2019-Jul-14 08:41 178 2 gusting 6 23.3
2019-Jul-14 08:32 183 2 gusting 6 23.3
2019-Jul-14 08:23 168 1 gusting 5 23.3
2019-Jul-14 08:14 106 0 gusting 2 23.3
2019-Jul-14 08:05 092 0 gusting 2 23.3
2019-Jul-14 07:56 179 0 gusting 0 23.3
2019-Jul-14 07:47 181 22.8
2019-Jul-14 07:38 181 22.2
2019-Jul-14 07:29 307 21.7
2019-Jul-14 07:20 307 0 gusting 2 21.7
2019-Jul-14 07:11 307 21.1
2019-Jul-14 07:02 337 0 gusting 1 20.6